Location: Central Falls
(41.8900°N, 71.3929°W)
Time: 03:40:31
(UTC+00:00)

Vanguard 2 - Pass Details

Date: 04 December 2023
Orbit: 554 x 2918 km, 32.9° (Epoch: 01 March)

Event Time Altitude Azimuth Distance (km) Brightness Sun altitude
Rises 05:40:41 0° 268° (W) 6,298 - -66.1°
Reaches altitude 10° 05:45:29 10° 264° (W) 4,986 - -65.5°
Maximum altitude 05:57:56 48° 197° (SSW) 2,099 - -63.8°
Drops below altitude 10° 06:05:37 10° 125° (SE) 3,133 - -62.8°
Sets 06:07:58 0° 119° (ESE) 3,843 - -62.4°
